Location: Miles
(41.4492°N, 81.6087°W)
Time: 01:14:15
(UTC+00:00)

Courier 1B Rocket - Pass Details

Date: 21 September 2024
Orbit: 920 x 1201 km, 28.3° (Epoch: 15 October)

Event Time Altitude Azimuth Distance (km) Brightness Sun altitude
Rises 19:02:57 0° 231° (SW) 3,545 8.7 42.6°
Reaches altitude 10° 19:06:08 10° 216° (SW) 2,617 8.4 42.3°
Maximum altitude 19:10:43 21° 169° (SSE) 1,956 7.4 41.7°
Drops below altitude 10° 19:15:28 10° 121° (ESE) 2,707 7.4 41.2°
Sets 19:18:49 0° 107° (ESE) 3,703 7.8 40.8°
